Regional Weather Roundup
Issued by NWS

Home | Current Version | Previous Version | Graphics & Text | Print | Product List | Glossary On
Versions: 1 2 3 4 5 6 7 8 9 10 11 12 13 14 15 16 17 18 19 20 21 22 23 24 25 26 27 28 29 30 31 32 33 34 35 36 37 38 39 40 41 42 43 44 45 46 47 48 49 50
000
ASUS44 KMEG 290310
RWRTN
TENNESSEE HOURLY STATE WEATHER ROUNDUP
NATIONAL WEATHER SERVICE MEMPHIS TN
1000 PM CDT THU MAY 28 2015

TNZ002-004-019-021-049-052-054-088>092-290400-
WEST TENNESSEE

CITY           SKY/WX    TMP DP  RH WIND       PRES   REMARKS
MEMPHIS INTL   PTCLDY    76  65  68 SE6       30.07S
NWS MEMPHIS      N/A     74 N/A N/A MISG        N/A
JACKSON        CLEAR     70  66  87 S5        30.10R
DYERSBURG      CLEAR     72  55  56 SE5       30.09S
PARIS          CLEAR     68  66  94 CALM      30.12S
LEXINGTON      CLEAR     70  68  94 CALM      30.12R
$$

TNZ008-025-027-028-033-062-065-066-290400-
NORTH MIDDLE TENNESSEE

CITY           SKY/WX    TMP DP  RH WIND       PRES   REMARKS
NASHVILLE      MOCLDY    76  66  71 SE7       30.15R
CLARKSVILLE    PTCLDY    71  66  84 E3        30.13R
SMYRNA         HVY RAIN  70  66  88 S8G21     30.19R FOG
COOKEVILLE     CLEAR     70  68  94 CALM      30.20R
CROSSVILLE     CLOUDY    68  61  78 VRB6      30.24S
$$

TNZ061-075-076-078-094-096-097-290400-
SOUTH MIDDLE TENNESSEE

CITY           SKY/WX    TMP DP  RH WIND       PRES   REMARKS
FAYETTEVILLE   CLEAR    N/A N/A N/A MISG      30.19R
TULLAHOMA      CLEAR     68  64  88 CALM      30.21R
WINCHESTER     PTCLDY    70  66  88 S5        30.19S
MCMINNVILLE    MOCLDY    68  68 100 CALM      30.20S
COLUMBIA       MOCLDY    70  68  94 SE3       30.16R
SHELBYVILLE    PTCLDY    70  68  94 S5        30.19S
$$

TNZ017-018-042-046-047-290400-
NORTHEAST TENNESSEE

CITY           SKY/WX    TMP DP  RH WIND       PRES   REMARKS
TRI CITIES     CLOUDY    68  66  93 E3        30.25R
ELIZABETHTON   CLEAR     63  61  94 NE5       30.28R
$$

TNZ012-013-036-069-073-074-290400-
CENTRAL EAST TENNESSEE

CITY           SKY/WX    TMP DP  RH WIND       PRES   REMARKS
KNOXVILLE      CLOUDY    73  66  78 W10       30.21R
OAK RIDGE      CLOUDY    72  63  73 VRB5      30.23R
GATLINBURG       N/A     70  66  88 CALM      30.21R
MORRISTOWN     CLEAR     72  63  73 E3        30.24R
$$

TNZ083-085-099-290400-
SOUTHEAST TENNESSEE

CITY           SKY/WX    TMP DP  RH WIND       PRES   REMARKS
CHATTANOOGA    CLOUDY    69  67  93 CALM      30.22R
$$

SKY/WX REPORTED AS FAIR MEANS FEW OR NO CLOUDS BELOW
12 THOUSAND FEET.




USA.gov is the U.S. government's official web portal to all federal, state and local government web resources and services.